sat.trackr.live / text

‹ back to catalog

STARLINK-34942

NORAD 65181 · 2025-175H

PAYLOAD ACTIVE UNKNOWN

§ Identity

Operator
Country
US
Launch date
2025-08-14
Launch site
AFWTR
Launch vehicle
Mass (kg)
RCS (m²)

Purposes: comms

External: N2YO · Heavens-Above · Gunter

§ Orbital elements

Epoch: 2026-05-25T02:10:12.474624Z

Period
95.64 min
Inclination
97.4512°
Eccentricity
0.0002293
Mean motion
15.05660656 rev/d
Perigee alt
547.9 km
Apogee alt
551.1 km
Semi-major
6,927.6 km
B*
4.0983e-4
RAAN
17.5428°
Arg perigee
90.1574°
Mean anomaly
269.9916°
Rev number
4,410

§ Raw data

STARLINK-349421 65181U 25175H   26145.09042216  .00005861  00000+0  40983-3 0  99992 65181  97.4512  17.5428 0002293  90.1574 269.9916 15.05660656 44101

JSON: /api/v1/satellites/65181 · /tle

For live sub-satellite position, see the globe view (requires WebGL).

§ Visibility from observer

Set your observer location to see the next 7 days of passes ≥ 10°. The values pass through the URL so the page stays shareable.

No JS? Fill the form by hand. The geolocation button needs JavaScript.